Location: Zagreb
(45.8000°N, 16.0000°E)
Time: 14:38:42
(UTC+02:00)

Tiros 1 despin weight - Pass Details

Date: 09 August 2022
Orbit: 590 x 639 km, 48.2° (Epoch: 23 September)

Event Time Altitude Azimuth Distance (km) Brightness Sun altitude
Rises 14:16:11 0° 232° (SW) 2,840 ? 56.1°
Reaches altitude 10° 14:18:31 10° 228° (SW) 1,933 ? 55.9°
Maximum altitude 14:22:49 53° 152° (SSE) 734 ? 55.5°
Drops below altitude 10° 14:27:06 10° 75° (ENE) 1,922 ? 55.0°
Sets 14:29:25 0° 71° (ENE) 2,823 ? 54.8°
